User: anonymous   Login
Location: Fontevrault
(47.1823°N, 0.0493°E)
Time: 09:16:50
(UTC+00:00)
Language:

Cosmos 1725 Rocket - Orbit

View from above orbital plane
View from above orbital plane
View from above satellite
View from above satellite

Ground track
Ground track

The orbit data is extracted from the following two-line orbital elements,

1 16494U 86005B   21263.80504764  .00000039  00000-0  24496-4 0  9992
2 16494  82.9360 353.9597 0019138 201.3022 275.1793 13.76515477791802
Epoch (UTC): 20 September 2021 19:19:16
Eccentricity: 0.0019138
inclination: 82.9360°
perigee height: 962 km
apogee height: 990 km
right ascension of ascending node: 353.9597°
argument of perigee: 201.3022°
revolutions per day: 13.76515477
mean anomaly at epoch: 275.1793°
orbit number at epoch: 79180

The dashed part of the orbit path shows where the satellite is in the earth's shadow,  

DLR